This is the latest recevied weather packets stored in our database for station/object KB2AHZ. If no packets are shown the sender has not sent any weather packets the latest 10 day(s).
| Time | Temp. | Humidity | Pressure | Rain* | Wind** | Luminosity | Snow |
|---|---|---|---|---|---|---|---|
| 1777619818 | 8.33° C | 80% | 1015.8 hPa | 0 mm | - | 0 W/m² | - |
| 1777619514 | 8.33° C | 82% | 1015.8 hPa | 0 mm | - | 0 W/m² | - |
| 1777619210 | 8.33° C | 80% | 1015.8 hPa | 0 mm | - | 0 W/m² | - |
| 1777618909 | 8.33° C | 80% | 1015.7 hPa | 0 mm | - | 0 W/m² | - |
| 1777618605 | 8.33° C | 81% | 1015.7 hPa | 0 mm | - | 0 W/m² | - |
| 1777618300 | 8.33° C | 80% | 1015.8 hPa | 0 mm | - | 0 W/m² | - |
| 1777617997 | 8.33° C | 79% | 1015.8 hPa | 0 mm | - | 0 W/m² | - |
| 1777617693 | 8.89° C | 79% | 1015.7 hPa | 0 mm | - | 0 W/m² | - |
| 1777617388 | 8.89° C | 78% | 1015.6 hPa | 0 mm | - | 0 W/m² | - |
| 1777617087 | 8.89° C | 78% | 1015.8 hPa | 0 mm | - | 0 W/m² | - |
| 1777616781 | 8.89° C | 78% | 1015.8 hPa | 0 mm | - | 0 W/m² | - |
| 1777616477 | 8.89° C | 76% | 1015.8 hPa | 0 mm | - | 0 W/m² | - |
| 1777616173 | 9.44° C | 76% | 1015.4 hPa | 0 mm | - | 0 W/m² | - |
| 1777615870 | 9.44° C | 75% | 1015.5 hPa | 0 mm | - | 0 W/m² | - |
| 1777615567 | 9.44° C | 75% | 1015.4 hPa | 0 mm | - | 0 W/m² | - |
| 1777615263 | 10° C | 74% | 1015.2 hPa | 0 mm | - | 0 W/m² | - |
| 1777614956 | 10° C | 74% | 1015.5 hPa | 0 mm | - | 0 W/m² | - |
| 1777614653 | 10.56° C | 73% | 1015.4 hPa | 0 mm | - | 0 W/m² | - |
| 1777614349 | 10.56° C | 71% | 1015.3 hPa | 0 mm | - | 0 W/m² | - |
| 1777614044 | 11.11° C | 66% | 1015.1 hPa | 0 mm | - | 0 W/m² | - |
| 1777613740 | 11.11° C | 65% | 1015 hPa | 0 mm | - | 0 W/m² | - |
| 1777613438 | 11.11° C | 64% | 1014.8 hPa | 0 mm | - | 0 W/m² | - |
| 1777613134 | 11.11° C | 64% | 1015 hPa | 0 mm | - | 0 W/m² | - |
| 1777612830 | 11.11° C | 64% | 1015.1 hPa | 0 mm | - | 0 W/m² | - |
| 1777612527 | 11.67° C | 64% | 1015 hPa | 0 mm | - | 0 W/m² | - |
* Rain latest hour (hover to see other rain measurements)
** Current wind speed in m/s (hover to see current wind gust speed)